Regional Weather Roundup
Issued by NWS Little Rock, AR

Home | Current Version | Previous Version | Text Only | Print | Product List | Glossary Off
Versions: 1 2 3 4 5 6 7 8 9 10 11 12 13 14 15 16 17 18 19 20 21 22 23 24 25 26 27 28 29 30 31 32 33 34

000
ASUS44 KLZK 031705
RWRLZK

WEATHER ROUNDUP FOR ARKANSAS
NATIONAL WEATHER SERVICE LITTLE ROCK AR
1100 AM CST SAT DEC 03 2016

NOTE: "FAIR" INDICATES FEW OR NO CLOUDS BELOW 12,000 FEET WITH NO
SIGNIFICANT WEATHER AND/OR OBSTRUCTIONS TO VISIBILITY.

ARZ001-003-010-029-031800-
NORTHWEST ARKANSAS

CITY           SKY/WX    TMP DP  RH WIND       PRES   REMARKS
FAYETTEVILLE   CLOUDY    49  34  56 SE12G22   30.24F
FORT SMITH     LGT RAIN  47  42  83 E12       30.23F
HARRISON       CLOUDY    43  35  73 E7        30.29F
BENTONVILLE    PTSUNNY   48  32  53 E9        30.25F
ROGERS         PTSUNNY   48  34  58 E13       30.25F
SILOAM SPGS    CLOUDY    50  34  53 S10G16    30.23F
HIGHFILL       CLOUDY    50  36  58 E9        30.24F
SPRINGDALE     CLOUDY    48  36  61 E8        30.26F
$$

ARZ004-005-016-031800-
NORTH CENTRAL ARKANSAS

CITY           SKY/WX    TMP DP  RH WIND       PRES   REMARKS
BATESVILLE     CLOUDY    45  36  70 E5        30.34F
FLIPPIN        CLOUDY    45  30  57 E7        30.29F
MTN HOME       CLOUDY    43  32  65 SE7       30.31F
$$

ARZ040-041-031800-
WEST CENTRAL ARKANSAS

CITY           SKY/WX    TMP DP  RH WIND       PRES   REMARKS
MENA           CLOUDY    46  45  93 E8        30.21F
MOUNT IDA      LGT RAIN  46  44  93 VRB3      30.22F
$$

ARZ009-017-025-026-028-031800-
NORTHEAST ARKANSAS

CITY           SKY/WX    TMP DP  RH WIND       PRES   REMARKS
CORNING        FAIR      45  36  70 E6        30.37F
JONESBORO      CLOUDY    45  36  70 NE9       30.34F
NEWPORT        CLOUDY    45  39  79 NE9       30.34
WALNUT RIDGE   CLOUDY    45  34  65 NE6       30.35F
BLYTHEVILLE    CLOUDY    46  35  65 E8        30.36F
$$

ARZ022-023-033-042-044-031800-
CENTRAL ARKANSAS

CITY           SKY/WX    TMP DP  RH WIND       PRES   REMARKS
LITTLE ROCK    LGT RAIN  45  44  97 E7        30.31F
N LITTLE ROCK    N/A     44  42  92 E7        30.31F
JACKSONVILLE   CLOUDY    45  43  93 NE6       30.30F
SEARCY         LGT RAIN  45  41  86 NE6       30.34F
HOT SPRINGS    LGT RAIN  46  44  93 E9        30.26F
RUSSELLVILLE   CLOUDY    46  40  79 E6        30.28F
$$

ARZ036-031800-
EAST ARKANSAS

CITY           SKY/WX    TMP DP  RH WIND       PRES   REMARKS
WEST MEMPHIS   LGT RAIN  48  33  56 SE7       30.33F
$$

ARZ050-053-066-070-073-031800-
SOUTHWEST ARKANSAS

CITY           SKY/WX    TMP DP  RH WIND       PRES   REMARKS
ARKADELPHIA    RAIN      46  45  96 E6        30.28F
CAMDEN         HVY RAIN  46  41  81 E6        30.27F
TEXARKANA      RAIN      45  45 100 E9G20     30.19F FOG
EL DORADO      RAIN      46  45  96 NE14G21   30.23F FOG
DE QUEEN       RAIN      46  45  96 E13G22    30.19F FOG
$$

ARZ056-057-069-031800-
SOUTHEAST ARKANSAS

CITY           SKY/WX    TMP DP  RH WIND       PRES   REMARKS
PINE BLUFF     LGT RAIN  47  44  90 E8        30.30F
STUTTGART      CLOUDY    46  39  76 E7        30.32F
MONTICELLO     LGT RAIN  46  44  93 E7        30.29F

$$






USA.gov is the U.S. government's official web portal to all federal, state and local government web resources and services.